• In Germany
  • List of Countries
  • For 7 days
  • Water Temperature
  • Satellite Maps
  • Weather Map
  • Weather Widgets
  • user-avatar
    Login

    Hourly Weather Sevan

    Today, 18 February, Sunday

    Time Temperature Precipitation Wind Pressure Humidity
    00:00 +3°C° 0.1 mm 2 mps 638 mmHg 78%
    01:00 +3°C° 0.4 mm 2 mps 638 mmHg 79%
    02:00 +3°C° 0.4 mm 2 mps 637 mmHg 80%
    03:00 +3°C° 0.4 mm 2 mps 637 mmHg 82%
    04:00 +3°C° 0.7 mm 2 mps 636 mmHg 82%
    05:00 +2°C° 0.7 mm 3 mps 636 mmHg 83%
    06:00 +1°C° 0.7 mm 3 mps 636 mmHg 83%
    07:00 +1°C° 1.1 mm 3 mps 636 mmHg 83%
    08:00 +1°C° 1.1 mm 3 mps 636 mmHg 83%
    09:00 +1°C° 1.1 mm 3 mps 636 mmHg 83%
    10:00 +2°C° 1 mm 3 mps 636 mmHg 82%
    11:00 +2°C° 1 mm 3 mps 635 mmHg 81%
    12:00 +1°C° 1 mm 4 mps 635 mmHg 80%
    13:00 +1°C° 0.7 mm 4 mps 635 mmHg 80%
    14:00 +1°C° 0.7 mm 4 mps 634 mmHg 80%
    15:00 +1°C° 0.7 mm 4 mps 634 mmHg 79%
    16:00 +1°C° 0.8 mm 4 mps 634 mmHg 80%
    17:00 +2°C° 0.8 mm 3 mps 634 mmHg 82%
    18:00 +1°C° 0.8 mm 3 mps 634 mmHg 83%
    19:00 +1°C° 0.6 mm 3 mps 635 mmHg 83%
    20:00 +1°C° 0.6 mm 3 mps 635 mmHg 83%
    21:00 +1°C° 0.6 mm 3 mps 635 mmHg 84%
    22:00 +2°C° 0.4 mm 2 mps 636 mmHg 84%
    23:00 +1°C° 0.4 mm 2 mps 636 mmHg 84%

    Tomorrow, 19 February, Monday

    Time Temperature Precipitation Wind Pressure Humidity
    00:00 +1°C° 0.4 mm 2 mps 636 mmHg 85%
    01:00 +1°C° 0.4 mm 2 mps 636 mmHg 85%
    02:00 +1°C° 0.4 mm 2 mps 636 mmHg 86%
    03:00 +1°C° 0.4 mm 2 mps 636 mmHg 86%
    04:00 +1°C° 0.3 mm 2 mps 636 mmHg 86%
    05:00 -1°C° 0.3 mm 2 mps 637 mmHg 86%
    06:00 -1°C° 0.3 mm 2 mps 637 mmHg 86%
    07:00 +2°C° 0.2 mm 1 mps 637 mmHg 85%
    08:00 +2°C° 0.2 mm 1 mps 637 mmHg 83%
    09:00 +3°C° 0.2 mm 1 mps 638 mmHg 81%
    10:00 +3°C° 0.1 mm 1 mps 638 mmHg 80%
    11:00 +4°C° 0.1 mm 1 mps 638 mmHg 78%
    12:00 +4°C° 0.1 mm 1 mps 638 mmHg 77%
    13:00 +5°C° 0.1 mm 1 mps 637 mmHg 75%
    14:00 +5°C° 0.1 mm 1 mps 637 mmHg 74%
    15:00 +5°C° 0.1 mm 1 mps 637 mmHg 72%
    16:00 +4°C° 0 mm 1 mps 637 mmHg 73%
    17:00 +3°C° 0 mm 1 mps 637 mmHg 74%
    18:00 +2°C° 0 mm 1 mps 637 mmHg 75%
    19:00 +2°C° 0 mm 1 mps 637 mmHg 74%
    20:00 +1°C° 0 mm 1 mps 638 mmHg 74%
    21:00 +1°C° 0 mm 1 mps 638 mmHg 74%
    22:00 0°C° 0 mm 1 mps 638 mmHg 74%
    23:00 0°C° 0 mm 1 mps 638 mmHg 73%

    Day after tomorrow, 20 February, Tuesday

    Time Temperature Precipitation Wind Pressure Humidity
    00:00 0°C° 0 mm 1 mps 638 mmHg 73%
    01:00 0°C° 0 mm 1 mps 638 mmHg 74%
    02:00 0°C° 0 mm 1 mps 638 mmHg 74%
    03:00 0°C° 0 mm 1 mps 638 mmHg 74%
    04:00 0°C° 0 mm 1 mps 638 mmHg 75%
    05:00 0°C° 0 mm 1 mps 638 mmHg 76%
    06:00 0°C° 0 mm 1 mps 638 mmHg 77%
    07:00 -1°C° 0 mm 2 mps 639 mmHg 75%
    08:00 +1°C° 0 mm 2 mps 639 mmHg 74%
    09:00 +2°C° 0 mm 2 mps 639 mmHg 73%
    10:00 +3°C° 0 mm 2 mps 639 mmHg 70%
    11:00 +4°C° 0 mm 2 mps 639 mmHg 68%
    12:00 +4°C° 0 mm 2 mps 639 mmHg 65%
    13:00 +5°C° 0 mm 2 mps 639 mmHg 64%
    14:00 +5°C° 0 mm 2 mps 638 mmHg 63%
    15:00 +5°C° 0 mm 2 mps 638 mmHg 62%
    16:00 +4°C° 0 mm 2 mps 638 mmHg 63%
    17:00 +3°C° 0 mm 2 mps 638 mmHg 64%
    18:00 +2°C° 0 mm 2 mps 637 mmHg 65%
    19:00 +2°C° 0 mm 1 mps 638 mmHg 64%
    20:00 +2°C° 0 mm 1 mps 638 mmHg 64%
    21:00 +2°C° 0 mm 1 mps 638 mmHg 63%
    22:00 +1°C° 0 mm 1 mps 638 mmHg 64%
    23:00 +1°C° 0 mm 1 mps 638 mmHg 65%

    21 February, Wednesday

    Time Temperature Precipitation Wind Pressure Humidity
    00:00 +1°C° 0 mm 1 mps 638 mmHg 66%
    01:00 +1°C° 0.1 mm 1 mps 638 mmHg 67%
    02:00 +1°C° 0.1 mm 1 mps 638 mmHg 69%
    03:00 +1°C° 0.1 mm 1 mps 638 mmHg 71%
    04:00 0°C° 0.1 mm 1 mps 638 mmHg 72%
    05:00 0°C° 0.1 mm 1 mps 638 mmHg 73%
    06:00 0°C° 0.1 mm 1 mps 638 mmHg 74%
    07:00 +1°C° 0.1 mm 1 mps 638 mmHg 73%
    08:00 +2°C° 0.1 mm 1 mps 639 mmHg 72%
    09:00 +3°C° 0.1 mm 1 mps 639 mmHg 71%
    10:00 +3°C° 0.1 mm 2 mps 639 mmHg 70%
    11:00 +3°C° 0.1 mm 2 mps 639 mmHg 69%
    12:00 +4°C° 0.1 mm 2 mps 639 mmHg 68%
    13:00 +4°C° 0.1 mm 2 mps 638 mmHg 67%
    14:00 +5°C° 0.1 mm 2 mps 638 mmHg 67%
    15:00 +5°C° 0.1 mm 2 mps 638 mmHg 67%
    16:00 +4°C° 0.1 mm 2 mps 638 mmHg 69%
    17:00 +3°C° 0.1 mm 2 mps 638 mmHg 70%
    18:00 +3°C° 0.1 mm 1 mps 638 mmHg 72%
    19:00 +3°C° 0.1 mm 1 mps 638 mmHg 73%
    20:00 +2°C° 0.1 mm 1 mps 638 mmHg 73%
    21:00 +2°C° 0.1 mm 1 mps 639 mmHg 73%
    22:00 +2°C° 0.1 mm 1 mps 639 mmHg 74%
    23:00 +2°C° 0.1 mm 1 mps 639 mmHg 74%

    22 February, Thursday

    Time Temperature Precipitation Wind Pressure Humidity
    00:00 +1°C° 0.1 mm 1 mps 639 mmHg 74%
    01:00 +1°C° 0.1 mm 1 mps 639 mmHg 75%
    02:00 +1°C° 0.1 mm 1 mps 639 mmHg 75%
    03:00 +1°C° 0.1 mm 1 mps 639 mmHg 76%
    04:00 0°C° 0.1 mm 1 mps 639 mmHg 76%
    05:00 0°C° 0.1 mm 1 mps 639 mmHg 77%
    06:00 0°C° 0.1 mm 1 mps 639 mmHg 78%
    07:00 +1°C° 0.1 mm 1 mps 639 mmHg 76%
    08:00 +2°C° 0.1 mm 1 mps 639 mmHg 75%
    09:00 +2°C° 0.1 mm 2 mps 640 mmHg 74%
    10:00 +3°C° 0 mm 2 mps 639 mmHg 72%
    11:00 +4°C° 0 mm 2 mps 639 mmHg 71%
    12:00 +5°C° 0 mm 2 mps 639 mmHg 69%
    13:00 +5°C° 0 mm 2 mps 638 mmHg 68%
    14:00 +5°C° 0 mm 2 mps 638 mmHg 66%
    15:00 +6°C° 0 mm 2 mps 638 mmHg 65%
    16:00 +4°C° 0 mm 2 mps 637 mmHg 66%
    17:00 +3°C° 0 mm 2 mps 637 mmHg 67%
    18:00 +2°C° 0 mm 2 mps 637 mmHg 69%
    19:00 +2°C° 0 mm 2 mps 637 mmHg 69%
    20:00 +1°C° 0 mm 2 mps 638 mmHg 69%
    21:00 +2°C° 0 mm 1 mps 638 mmHg 69%
    22:00 +2°C° 0 mm 1 mps 638 mmHg 69%
    23:00 +1°C° 0 mm 1 mps 638 mmHg 70%

    23 February, Friday

    Time Temperature Precipitation Wind Pressure Humidity
    00:00 +1°C° 0 mm 1 mps 637 mmHg 70%
    01:00 +1°C° 0 mm 1 mps 637 mmHg 70%
    02:00 +1°C° 0 mm 1 mps 637 mmHg 71%
    03:00 +1°C° 0 mm 1 mps 637 mmHg 71%
    04:00 0°C° 0 mm 1 mps 637 mmHg 72%
    05:00 0°C° 0 mm 1 mps 637 mmHg 72%
    06:00 0°C° 0 mm 1 mps 637 mmHg 72%
    07:00 +1°C° 0 mm 1 mps 637 mmHg 70%
    08:00 +2°C° 0 mm 1 mps 638 mmHg 68%
    09:00 +4°C° 0 mm 1 mps 638 mmHg 66%
    10:00 +5°C° 0 mm 1 mps 638 mmHg 65%
    11:00 +6°C° 0 mm 1 mps 638 mmHg 65%
    12:00 +7°C° 0 mm 1 mps 638 mmHg 65%
    13:00 +7°C° 0 mm 1 mps 637 mmHg 63%
    14:00 +7°C° 0 mm 1 mps 637 mmHg 61%
    15:00 +8°C° 0 mm 1 mps 637 mmHg 59%
    16:00 +6°C° 0 mm 1 mps 637 mmHg 61%
    17:00 +5°C° 0 mm 1 mps 637 mmHg 63%
    18:00 +3°C° 0 mm 1 mps 637 mmHg 65%
    19:00 +3°C° 0 mm 1 mps 637 mmHg 67%
    20:00 +3°C° 0 mm 1 mps 637 mmHg 69%
    21:00 +1°C° 0 mm 2 mps 637 mmHg 71%
    22:00 +1°C° 0 mm 2 mps 637 mmHg 72%
    23:00 +1°C° 0 mm 2 mps 637 mmHg 73%
    Show more